www.pogodaiklimat.ru

Погода и климат >> Архив погоды >> Россия >> Ямало-Ненецкий АО >> Ныда


ПОГОДА в Ныде

  • Прогноз погоды в Ныде
  • Монитор погоды в Ныде

АРХИВ ПОГОДЫ в Ныде

Время (UTC), дата Ветер
(напр.,м/с)
 
Видим.   Явления Облачность Т
(С)
Тd
(С)
f
(%)
Тe
(С)
Тes
(С)
Комфортность P
(гПа)
Po
(гПа)
Тmin
(С)
Tmax
(С)
R
(мм)
R24
(мм)
S
(см)
21 10.02 Ю 8
{10}
4000 м слаб. снег {метель} 10/0
[As trans]
-24.3 -27.9 72 -38 -38 опасность
обморожения
1016.5 1015.5
00 11.02 Ю 8
{10}
4000 м слаб. снег {метель} 10/0
[As op]
-23.1 -26.5 74 -36 -36 опасность
обморожения
1015.6 1014.6
03 11.02 Ю 7
{10}
4000 м слаб. снег {метель} 10/0
[As op]
-21.5 -24.8 75 -34 -34 опасность
обморожения
1015.6 1014.6 -26.8 0.4 84
06 11.02 Ю 8
{10}
4000 м слаб. снег {метель} 10/0
[As trans]
-19.4 -22.4 77 -32 -32 опасность
обморожения
1014.9 1013.9
09 11.02 Ю 7
{10}
10 км {снег, метель} 9/4 300 м
[Sc Ac trans]
-17.5 -20.3 79 -28 -28 1014.0 1013.0
12 11.02 Ю 6
{10}
4000 м слаб. снег {метель} 10/10 300 м
[Sc]
-15.3 -17.8 81 -25 -25 1013.2 1012.2
15 11.02 Ю 8-10
{10}
4000 м слаб. снег {метель} 10/0
[As trans]
-14.5 -16.9 82 -25 -25 1012.4 1011.4 -14.3 0.6
18 11.02 Ю 8-10
{10}
4000 м слаб. снег {метель} 10/0
[As op]
-12.8 -15.1 83 -23 -23 1011.4 1010.4
21 11.02 Ю 6
{10}
10 км в посл. час снег {метель} 10/0
[As trans]
-11.4 -13.6 84 -20 -20 1010.4 1009.5
00 12.02 Ю 7 10 км {снег, метель} 9/0
[Ac trans]
-9.8 -11.9 85 -19 -19 1009.9 1009.0
03 12.02 Ю 7
{10}
10 км позёмок 9/8 300 м
[Sc Ac trans]
-8.9 -10.7 87 -18 -18 1009.9 1009.0 -14.5 0.2 82
06 12.02 Ю 7
{10}
4000 м слаб. снег {метель} 10/10 300 м
[Sc]
-8.3 -10.1 87 -17 -17 1010.3 1009.4
09 12.02 Ю 6 4000 м слаб. снег 10/10 300 м
[Sc]
-8.2 -10.1 86 -17 -17 1010.6 1009.7
12 12.02 ЮЗ 6 10 км {снег} 10/10 300 м
[Sc]
-7.8 -9.6 87 -16 -16 1011.3 1010.4
15 12.02 ЮЗ 6 10 км 9/8 300 м
[Sc Ac trans]
-7.5 -9.4 86 -16 -16 1012.2 1011.3 -7.5 0.2
18 12.02 ЮЗ 5 10 км 6/6 300 м
[]
-10.7 -12.6 86 -19 -19 1012.5 1011.6
21 12.02 Ю 5 10 км 4/4 600 м
[Sc]
-12.9 -14.9 85 -21 -21 1012.9 1011.9
00 13.02 Ю 6 10 км 3/3 600 м
[Sc]
-14.3 -16.5 83 -24 -24 1012.9 1011.9
03 13.02 ЮВ 2 4000 м дымка [диам. изморози 1 мм] 8/5 600 м
[Sc Ci sp]
-12.1 -14.1 85 -17 -17 1012.7 1011.8 -14.4 83
06 13.02 Ю 7 10 км 8/3 600 м
[Sc Ac trans Ci sp]
-10.8 -12.7 86 -20 -20 1011.9 1011.0
09 13.02 Ю 10-12
{12}
10 км позёмок [диам. изморози 0 мм] 8/3 600 м
[Sc Ac trans Ci sp]
-10.1 -12.2 85 -21 -21 1010.9 1010.0
12 13.02 Ю 10-12
{14}
4000 м метель [диам. изморози 0 мм] 9/6 600 м
[Sc Ac trans]
-7.3 -9.0 88 -18 -18 1009.6 1008.7
15 13.02 Ю 8-11
{12}
10 км позёмок 9/8 600 м
[Sc Ac trans]
-6.3 -8.0 88 -15 -15 1008.7 1007.8 -6.2
18 13.02 Ю 7
{12}
10 км позёмок 8/8 300 м
[Sc]
-7.4 -9.3 86 -16 -16 1007.4 1006.5
21 13.02 ЮЗ 9-12
{13}
4000 м позёмок 10/10 300 м
[Sc]
-6.0 -7.6 88 -16 -16 1006.6 1005.7
00 14.02 ЮЗ 8-10
{13}
10 км {метель} 10/10 300 м
[Sc]
-5.5 -7.4 86 -14 -14 1006.2 1005.3
03 14.02 ЮЗ 9-12
{13}
10 км позёмок 10/10 300 м
[Sc]
-6.2 -8.1 86 -16 -16 1005.7 1004.8 -7.5 83
06 14.02 Ю 6
{13}
10 км {метель} 10/10 300 м
[Sc]
-5.2 -7.3 85 -13 -13 1004.3 1003.4
09 14.02 Ю 6 4000 м слаб. снег 10/0 300 м
[As op]
-4.5 -5.9 90 -12 -12 1000.3 999.4
12 14.02 Ю 9-12
{14}
4000 м слаб. снег {метель} 10/0 300 м
[As op]
-5.0 -6.3 91 -14 -14 997.4 996.5
15 14.02 ЮЗ 9-12
{14}
4000 м слаб. снег {метель} 10/0 300 м
[As op]
-5.3 -6.6 91 -15 -15 996.3 995.4 -4.0 2
18 14.02 З 6-10
{13}
4000 м слаб. снег {метель} 10/0 300 м
[As op]
-8.4 -10.0 88 -17 -17 996.5 995.6
21 14.02 СЗ 9-12
{13}
4000 м слаб. снег {метель} 10/0 300 м
[As op]
-15.5 -17.9 82 -27 -27 999.6 998.7
00 15.02 СЗ 7
{13}
10 км позёмок {снег} 3/0
[Ac trans]
-20.3 -23.1 78 -32 -32 опасность
обморожения
1002.7 1001.7
03 15.02 З 4
{11}
10 км {метель} 4/0
[Ac trans Ci fib]
-23.9 -27.1 75 -34 -34 опасность
обморожения
1008.8 1007.8 -23.9 1 86
06 15.02 СЗ 5 10 км {метель} 3/0
[Ac trans]
-24.0 -27.3 74 -35 -35 опасность
обморожения
1009.5 1008.5 -24.6
09 15.02 З 2 10 км 8/0
[Ac trans]
-21.2 -24.2 77 -27 -27 1011.3 1010.3
12 15.02 Ю 1 10 км 3/0
[Ac trans]
-24.9 -28.4 73 -28 -28 1012.6 1011.6
15 15.02 Ю 2 10 км ясно -28.8 -32.6 70 -36 -36 опасность
обморожения
1012.4 1011.4 -20.8
18 15.02 В 2 10 км ясно -31.2 -35.3 67 -39 -39 опасность
обморожения
1011.7 1010.7
21 15.02 ЮВ 2 10 км ясно -32.0 -36.2 66 -40 -40 опасность
обморожения
1011.0 1010.0
00 16.02 В 2 10 км ясно -32.9 -37.3 65 -41 -41 опасность
обморожения
1009.5 1008.5
03 16.02 ЮВ 1 2000 м дымка [диам. изморози 1 мм] 10/0
[As trans]
-32.1 -35.0 75 -36 -36 опасность
обморожения
1008.6 1007.6 -33.4 85
06 16.02 В 2 4000 м дымка [диам. изморози 3 мм] 6/0
[Ac trans]
-29.4 -31.8 80 -37 -36 опасность
обморожения
1007.6 1006.6
09 16.02 ЮВ 1 10 км 8/0
[Ac trans Ci sp]
-29.0 -32.1 74 -33 -33 опасность
обморожения
1005.8 1004.8
12 16.02 ЮВ 1 10 км [диам. изморози 4 мм] 5/0
[Ac trans Ci sp]
-31.8 -36.0 66 -36 -36 опасность
обморожения
1004.9 1003.9
15 16.02 ЮВ 1 10 км [диам. изморози 4 мм] 3/0
[Ci sp]
-32.2 -36.5 65 -37 -37 опасность
обморожения
1004.3 1003.3 -28.8
18 16.02 Ю 2 10 км 6/0
[Ci sp]
-29.3 -33.3 68 -37 -37 опасность
обморожения
1001.5 1000.5
21 16.02 Ю 3 4000 м дымка [диам. изморози 6 мм] 9/0
[Ci sp]
-26.6 -29.0 80 -36 -36 опасность
обморожения
1000.5 999.5
00 17.02 Ю 7 4000 м дымка [диам. изморози 8 мм] 10/0
[As trans]
-24.2 -26.0 85 -37 -37 опасность
обморожения
998.6 997.6
03 17.02 Ю 6 4000 м дымка [диам. изморози 8 мм] 8/5 300 м
[Sc Ac trans]
-24.3 -26.8 80 -36 -36 опасность
обморожения
997.2 996.2 -32.8 87
06 17.02 Ю 6 4000 м позёмок [диам. изморози 8 мм] 9/4 300 м
[Sc Ac trans]
-22.3 -25.4 76 -34 -34 опасность
обморожения
996.6 995.6
09 17.02 Ю 6 10 км {метель} [диам. изморози 8 мм] 9/5 300 м
[Sc Ac trans]
-20.4 -23.3 78 -31 -31 опасность
обморожения
996.6 995.6
12 17.02 Ю 4 10 км {метель} [диам. изморози 0 мм] 8/0
[Ac trans Ci sp]
-20.9 -23.8 77 -30 -30 995.7 994.7
15 17.02 Ю 5 10 км 9/0
[Ac trans Ci sp]
-19.2 -21.9 79 -29 -29 995.4 994.4 -19.2

 

Местоположение метеостанции Ныда (Ямало-Ненецкий АО, Россия): широта 66.63 долгота 72.93 высота над уровнем моря 7 м.

В архиве по умолчанию представлена погода в Ныде за последнюю неделю. Архивные данные за месяц целиком и за предыдущие месяцы, начиная с января 2011 года, Вы можете получить, выбрав интересующий диапазон дат из раскрывающегося списка и нажав кнопку "Ввод!".


*Определитесь, кто Вы:
робот инопланетянин человек

Внимание! Время в таблицах - всемирное. Для получения местного времени необходимо прибавить поправку, которая равна 5 ч.

Смотрите также архив погоды в соседних городах и на ближайших метеорологических станциях:

Погода в Пангодах (Ямало-Ненецкий АО, Россия) (113 км)
Погода в Новом Порте (Ямало-Ненецкий АО, Россия) (117 км)
Погода в Надыме (Ямало-Ненецкий АО, Россия) (130 км)
Погода в Новом Уренгое (Ямало-Ненецкий АО, Россия) (181 км)
Погода в Полуе (Ямало-Ненецкий АО, Россия) (201 км)
Погода в Белоярске (Ямало-Ненецкий АО, Россия) (212 км)
Погода в Лонг-Югане (Ямало-Ненецкий АО, Россия) (226 км)
Погода в Уренгое (Ямало-Ненецкий АО, Россия) (256 км)
Погода в Тазовском (Ямало-Ненецкий АО, Россия) (268 км)
Погода в Салехарде (Ямало-Ненецкий АО, Россия) (277 км)

Пояснения к столбцам:

Ветер - указаны скорость ветра в м/с - средняя за 10 мин, порывы в срок и между сроками (в фигурных скобках) и направление, откуда дует ветер: С - северный, СВ - северо-восточный, В - восточный, ЮВ - юго-восточный, Ю - южный, ЮЗ - юго-западный, З - западный, СЗ - северо-западный.
Видимость - горизонтальная дальность видимости в метрах или километрах. При видимости от 1 до 10 км при отсутствии осадков обычно наблюдается дымка, при ухудшении видимости до 1 км и менее - туман. В сухую погоду видимость может ухудшаться дымом, пылью или мглою.
Явления - указаны атмосферные явления, наблюдавшиеся в срок или в последний час перед сроком; фигурными скобками обозначены явления, наблюдавшиеся между сроками (за 1-3 часа до срока); квадратными скобками обозначены град или гололедные отложения с указанием их диаметра в мм.
Облачность - указаны через наклонную черту общая и нижняя облачность в баллах и высота нижней границы облаков в метрах; квадратными скобками обозначены формы облаков: Ci - перистые, Cs - перисто-слоистые, Cc - перисто-кучевые, Ac - высококучевые, As - высокослоистые, Sc - слоисто-кучевые, Ns - слоисто-дождевые, Cu - кучевые, Cb - кучево-дождевые. Подробнее классификацию облаков см. в Атласе облаков (PDF).
T - Температура воздуха - температура, измеренная на высоте 2 м над землей.
Td - Температура точки росы - температура, при понижении до которой содержащийся в воздухе водяной пар достигнет насыщения.
f - Относительная влажность воздуха - влажноcть воздуха, измеренная на высоте 2 м над землей.
Te - Эффективная температура - температура, которую ощущает одетый по сезону человек в тени. Характеристика душности погоды. При расчете учитывается влияние влажности воздуха и скорости ветра на теплоощущения человека.
Tes - Эффективная температура на солнце - температура, которую ощущает человек, с поправкой на солнечный нагрев. Характеристика знойности погоды. Зависит от высоты солнца над горизонтом, облачности и скорости ветра. Ночью, в пасмурную погоду, а также при ветре 12 м/с и более поправка равна нулю.
P - Атмосферное давление - приведенное к уровню моря атмосферное давление.
Po - Атмосферное давление - измеренное на уровне метеостанции атмосферное давление.
Tmin - Минимальная температура - минимум температуры воздуха на высоте 2 м над землей.
Tmax - Максимальная температура - максимум температуры воздуха на высоте 2 м над землей.
R - Количество осадков - Количество выпавших осадков за период времени, мм. При наведении курсора мыши на число - период времени, за который выпало указанное количество осадков.
R24 - Количество осадков - Количество выпавших осадков за 24 часа, мм.
S - Снежный покров - Высота снежного покрова, см. При наведении курсора мыши на число - состояние снежного покрова и степень покрытия местности в баллах.